Weather in Pyongyang

North Korea     39°01′09″N   125°45′15″E
temp.,
°C
wind,
m/s
gust,
m/s
humid.,
%
clouds,
%
prec.,
mm/h
press.,
hPa
HPBL,
m
12 may, wed
wed1200:00+15e3349100 0.0 101391
03:00+14e3549100 0.0 1013143
06:00+12e245896 0.0 1013127
09:00+16se2453100 0.1 1014369
12:00+14ene346860 0.7 1014245
15:00+19ene235081 0.7 1012437
18:00+19ne33509 0.0 1011408
21:00+16nne236525 0.0 101367
13 may, thu
thu1300:00+15ne2269100 0.0 101336
03:00+14e227097 0.0 101241
06:00+15ene0169100 0.0 101326
09:00+19ne115699 0.0 1013335
12:00+24wnw114632 0.0 1012904
15:00+26w444619 0.0 10111534
18:00+22nw45590 0.0 1011560
21:00+18wnw11713 0.0 101272
14 may, fri
fri1400:00+17nw227560 0.0 101269
03:00+16n11805 0.0 101229
06:00+16nnw00834 0.0 101321
09:00+21ene226474 0.0 1013436
12:00+26sse114715 0.0 10111061
15:00+29ssw22415 0.0 10091750
18:00+27wnw33474 0.0 10081021
21:00+20wnw2366100 0.0 1011129
15 may, sat
sat1500:00+19n1169100 0.0 101146
03:00+18s0074100 0.0 101017
06:00+18ese1277100 0.0 100941
09:00+23e226214 0.0 1009545
12:00+28se134761 0.0 10071578
15:00+25wsw5658100 0.0 1005517
18:00+21w3372100 0.0 1005342
21:00+20nnw2382100 0.5 1006214
16 may, sun
sun1600:00+19nw2481100 0.3 1006205
03:00+19nnw1284100 0.4 1004115
06:00+19nw1184100 0.0 100453
09:00+21n2274100 0.0 1005425
12:00+22ne5572100 0.0 1005670
15:00+19ene6867100 0.0 1005434
18:00+17ene4762100 0.1 1005345
21:00+16ene3758100 0.1 1007311